[[{"header":{"parameterUnit":"m.s-1","parameterCategory":1,"la1":30.2991,"la2":30.254,"lo1":-89.0895,"lo2":-89.0444,"dy":0.0017,"dx":0.0017,"nx":28,"ny":28,"refTime":"2024-08-16T09:00:00:Z","depth":0,"parameterNumber":2,"parameterNumberName":"U-component_of_WINDS"},"data":[0,0,0,0,0,0,0,0,0,0,0,0,0,0,0,0,0,0,0,0,0,0,0,0,0,0,0,0,0,0,0,0,0,0,0,0,0,0,0,0,0,0,0,0,0,0,0,0,0,0,0,0,0,0,0,0,0,0,-2.5346,-2.5346,0,-2.5394,-2.5395,-2.5395,-2.5356,-2.5355,-2.5353,-2.5351,-2.5405,-2.5408,-2.5411,0,0,0,0,0,0,0,0,0,0,0,0,0,-2.5224,-2.5227,-2.5346,-2.5346,-2.5347,-2.5394,-2.5395,-2.5396,-2.5357,-2.5355,-2.5353,-2.5351,-2.5404,-2.5407,-2.5411,0,0,0,0,0,0,0,0,0,0,0,0,0,-2.5275,-2.5227,-2.5346,-2.5333,-2.5333,-2.5394,-2.5395,-2.5396,-2.5357,-2.5355,-2.5352,-2.535,-2.5403,-2.5407,-2.5411,-2.5489,0,0,-2.5425,-2.5427,0,0,0,0,0,0,0,0,-2.5273,-2.528,-2.5334,-2.5334,-2.5334,-2.5367,-2.5371,-2.5427,-2.5358,-2.5348,-2.5351,-2.5349,-2.5394,-2.5399,-2.5414,-2.5491,-2.5494,-2.5425,-2.5428,-2.543,-2.5431,0,0,0,0,0,0,0,-2.5269,-2.5278,-2.5365,-2.5335,-2.5335,-2.5327,-2.5331,-2.5382,-2.5385,-2.5349,-2.5346,-2.5352,-2.5394,-2.541,-2.5415,-2.5494,-2.5425,-2.5429,-2.5432,-2.5434,-2.564,-2.5643,0,0,0,0,0,0,-2.5266,-2.5275,-2.5363,-2.5366,-2.5296,-2.5331,-2.5336,-2.5359,-2.5384,-2.5385,-2.5354,-2.535,-2.5403,-2.541,-2.5417,-2.551,-2.543,-2.5434,-2.5437,-2.5637,-2.5641,-2.5644,0,0,0,0,0,0,-2.5264,-2.5274,-2.5362,-2.532,-2.533,-2.5336,-2.5361,-2.5361,-2.5377,-2.5388,-2.5389,-2.537,-2.5402,-2.541,-2.5471,-2.5511,-2.5436,-2.544,-2.5634,-2.5638,-2.5642,-2.5696,0,0,0,0,0,0,-2.526,-2.5274,-2.5302,-2.5321,-2.5333,-2.5414,-2.5364,-2.5364,-2.5384,-2.5379,-2.5403,-2.5404,-2.54,-2.5465,-2.5476,-2.5516,-2.5444,-2.563,-2.5636,-2.5641,-2.569,-2.5701,-2.5711,0,0,0,0,0,-2.5256,-2.5315,-2.5303,-2.5314,-2.5368,-2.5416,-2.5423,-2.5416,-2.5388,-2.5417,-2.5424,-2.5404,-2.5505,-2.5471,-2.5483,-2.5525,-2.5628,-2.5634,-2.564,-2.5686,-2.5699,-2.571,0,0,0,0,0,0,-2.5301,-2.5317,-2.5304,-2.5371,-2.5393,-2.5409,-2.5445,-2.543,-2.5461,-2.5455,-2.5447,-2.5452,-2.5517,-2.5527,-2.5489,-2.5603,-2.5562,-2.5571,-2.5593,-2.5605,-2.5615,-2.5611,-2.5447,0,0,0,0,0,-2.5319,-2.5355,-2.5368,-2.5426,-2.5437,-2.544,-2.5461,-2.5454,-2.5476,-2.5485,-2.5497,-2.5521,-2.5558,-2.5583,-2.5617,-2.5693,-2.5698,-2.5728,-2.5738,-2.5746,-2.5753,-2.5796,-2.5809,-2.5664,-2.5664,-2.5664,0,0,-2.5355,-2.5369,-2.5393,-2.5435,-2.5451,-2.5491,-2.5448,-2.5491,-2.5521,-2.5492,-2.5549,-2.556,-2.5586,-2.5655,-2.5686,-2.5666,-2.5795,-2.5754,-2.5761,-2.5764,-2.5804,-2.5817,-2.5829,-2.5669,-2.5668,-2.5667,0,0,-2.5442,-2.5456,-2.5506,-2.5523,-2.5547,-2.5549,-2.5561,-2.5581,-2.5587,-2.5645,-2.5624,-2.5661,-2.5725,-2.5745,-2.5763,-2.5861,-2.5844,-2.5873,-2.5925,-2.5966,-2.5978,-2.5988,-2.6023,-2.6036,-2.5881,-2.5881,-2.5881,0,-2.5485,-2.5542,-2.5534,-2.5579,-2.5599,-2.5575,-2.5627,-2.5644,-2.5679,-2.5695,-2.5672,-2.5753,-2.5769,-2.5843,-2.5867,-2.5883,-2.5897,-2.5869,-2.5976,-2.5987,-2.5996,-2.6029,-2.6043,-2.5885,-2.5884,-2.5884,-2.5884,0,-2.5593,-2.5634,-2.5672,-2.5705,-2.573,-2.5779,-2.5779,-2.5806,-2.5798,-2.5803,-2.5864,-2.5883,-2.5922,-2.5939,-2.5932,-2.6013,-2.6,-2.5977,-2.5936,-2.6013,-2.6044,-2.6057,-2.5889,-2.5888,-2.5887,-2.5886,0,0,-2.5707,-2.5737,-2.5751,-2.5767,-2.5794,-2.5825,-2.5874,-2.5911,-2.5935,-2.5961,-2.6002,-2.6059,-2.6039,-2.606,-2.6055,-2.6092,-2.6169,-2.6065,-2.6065,-2.6083,-2.626,-2.6276,-2.6291,-2.6159,-2.6161,-2.6163,-2.6258,0,-2.5794,-2.5876,-2.5872,-2.595,-2.5988,-2.5968,-2.6011,-2.6033,-2.604,-2.6075,-2.6083,-2.6123,-2.6094,-2.6106,-2.6142,-2.6152,-2.6204,-2.6145,-2.6198,-2.62,-2.619,-2.6307,-2.6323,-2.6412,-2.627,-2.6272,-2.6274,0,-2.5906,-2.5936,-2.6017,-2.604,-2.6056,-2.6094,-2.6129,-2.6162,-2.6188,-2.6191,-2.6216,-2.6206,-2.6258,-2.6217,-2.6289,-2.6249,-2.6271,-2.628,-2.6283,-2.6287,-2.624,-2.6313,-2.644,-2.6453,-2.6293,-2.6291,-2.629,0,-2.598,-2.6041,-2.6098,-2.6112,-2.614,-2.6167,-2.6181,-2.6204,-2.6228,-2.6259,-2.6275,-2.6313,-2.6333,-2.6364,-2.6366,-2.6336,-2.6439,-2.6398,-2.6443,-2.6444,-2.6464,-2.6463,-2.6595,-2.6481,-2.648,-2.648,-2.648,0,-2.6077,-2.6128,-2.6131,-2.6166,-2.6223,-2.622,-2.6277,-2.6288,-2.6309,-2.6348,-2.6334,-2.637,-2.6371,-2.6409,-2.6412,-2.6471,-2.6481,-2.6486,-2.6485,-2.6486,-2.6485,-2.6499,-2.6492,-2.6484,-2.6483,-2.6482,-2.6482,0,-2.6168,-2.6173,-2.6233,-2.6255,-2.6263,-2.6304,-2.6323,-2.6358,-2.6365,-2.6413,-2.6425,-2.6436,-2.648,-2.6486,-2.6538,-2.654,-2.6612,-2.6606,-2.6602,-2.6601,-2.6646,-2.6641,-2.6791,-2.6811,-2.6684,-2.6685,-2.6686,0,-2.6229,-2.6268,-2.6294,-2.6318,-2.6333,-2.6372,-2.6396,-2.6396,-2.6422,-2.6456,-2.6487,-2.653,-2.6563,-2.6636,-2.665,-2.669,-2.6685,-2.6735,-2.6691,-2.6691,-2.6685,-2.6682,-2.6687,-2.6742,-2.6744,-2.6745,-2.6746,0,-2.6337,-2.6338,-2.6372,-2.6408,-2.6437,-2.6466,-2.6493,-2.6514,-2.6517,-2.6548,-2.6592,-2.6619,-2.6673,-2.6716,-2.6756,-2.6772,-2.6761,-2.676,-2.6773,-2.6773,-2.6769,-2.6772,-2.6624,-2.6756,-2.6755,-2.6754,-2.6754,-2.6753,-2.6414,-2.6448,-2.6472,-2.6512,-2.6532,-2.6559,-2.6592,-2.6604,-2.6641,-2.6683,-2.6682,-2.6731,-2.6759,-2.6812,-2.6832,-2.6872,-2.6856,-2.6874,-2.6878,-2.6883,-2.6887,-2.6764,-2.688,-2.6879,-2.6879,-2.6879,-2.6879,0,-2.6521,-2.6536,-2.6573,-2.6611,-2.6643,-2.6629,-2.6659,-2.6686,-2.673,-2.6757,-2.6791,-2.6844,-2.6886,-2.6905,-2.6948,-2.6977,-2.6972,-2.6988,-2.6985,-2.6989,-2.6899,-2.6884,-2.699,-2.699,-2.699,-2.699,-2.699,-2.699,-2.658,-2.6636,-2.664,-2.6708,-2.6724,-2.6771,-2.679,-2.6815,-2.6836,-2.6895,-2.693,-2.6942,-2.6966,-2.7011,-2.705,-2.7055,-2.7071,-2.7089,-2.7091,-2.7007,-2.6995,-2.6984,-2.697,-2.7093,-2.7093,-2.7178,-2.7179,-2.7179]},{"header":{"parameterUnit":"m.s-1","parameterCategory":1,"la1":30.2991,"la2":30.254,"lo1":-89.0895,"lo2":-89.0444,"dy":0.0017,"dx":0.0017,"nx":28,"ny":28,"refTime":"2024-08-16T09:00:00:Z","depth":0,"parameterNumber":3,"parameterNumberName":"V-component_of_WINDS"},"data":[0,0,0,0,0,0,0,0,0,0,0,0,0,0,0,0,0,0,0,0,0,0,0,0,0,0,0,0,0,0,0,0,0,0,0,0,0,0,0,0,0,0,0,0,0,0,0,0,0,0,0,0,0,0,0,0,0,0,2.3909,2.3909,0,2.3926,2.3927,2.3927,2.3998,2.4,2.4002,2.4003,2.4017,2.4016,2.4015,0,0,0,0,0,0,0,0,0,0,0,0,0,2.3934,2.3933,2.3909,2.3909,2.3909,2.3926,2.3927,2.3927,2.3998,2.4,2.4002,2.4004,2.4018,2.4016,2.4015,0,0,0,0,0,0,0,0,0,0,0,0,0,2.3934,2.3933,2.3909,2.3947,2.3951,2.3926,2.3927,2.3927,2.3998,2.4,2.4003,2.4005,2.4018,2.4017,2.4015,2.3954,0,0,2.4009,2.4009,0,0,0,0,0,0,0,0,2.3934,2.3933,2.3941,2.3944,2.3948,2.3963,2.3941,2.3936,2.3997,2.398,2.4003,2.4006,2.3997,2.3997,2.3995,2.3955,2.3955,2.4009,2.4008,2.4007,2.4007,0,0,0,0,0,0,0,2.3934,2.3933,2.3916,2.3941,2.3945,2.3962,2.3965,2.394,2.3974,2.3981,2.3987,2.3988,2.3999,2.3996,2.3996,2.3955,2.4009,2.4008,2.4007,2.4006,2.3865,2.3862,0,0,0,0,0,0,2.3929,2.3932,2.3915,2.3916,2.3947,2.396,2.3963,2.3955,2.3974,2.398,2.3986,2.3991,2.3998,2.3998,2.3996,2.3925,2.4007,2.4006,2.4005,2.3868,2.3864,2.3861,0,0,0,0,0,0,2.3929,2.3927,2.3914,2.3926,2.3925,2.3957,2.3948,2.3955,2.3952,2.3978,2.3984,2.3976,2.4,2.3999,2.3964,2.3927,2.4005,2.4003,2.3871,2.3867,2.3863,2.3782,0,0,0,0,0,0,2.393,2.3926,2.3904,2.3925,2.3925,2.3882,2.3946,2.3953,2.3949,2.3956,2.3971,2.3976,2.4002,2.3966,2.3962,2.3926,2.4002,2.3874,2.3869,2.3864,2.3788,2.3776,2.3765,0,0,0,0,0,2.393,2.388,2.3903,2.39,2.3898,2.388,2.388,2.3912,2.3946,2.3923,2.394,2.3975,2.3932,2.3962,2.3958,2.392,2.3877,2.387,2.3865,2.3794,2.3778,2.3766,0,0,0,0,0,0,2.3853,2.3884,2.3909,2.3864,2.3869,2.3892,2.3865,2.3895,2.389,2.3897,2.3936,2.3939,2.3898,2.3906,2.3939,2.3862,2.391,2.3903,2.3857,2.3843,2.3832,2.383,2.4001,0,0,0,0,0,2.3832,2.3816,2.3843,2.3801,2.3802,2.3833,2.3826,2.3851,2.3857,2.3859,2.3873,2.3877,2.3864,2.3855,2.3845,2.3791,2.3794,2.3763,2.3752,2.3742,2.3734,2.3705,2.3691,2.3842,2.3842,2.3842,0,0,2.3786,2.38,2.3788,2.3786,2.3792,2.3774,2.3834,2.3812,2.3798,2.3855,2.3823,2.3834,2.384,2.3795,2.3776,2.3801,2.3694,2.3734,2.3726,2.3724,2.3697,2.3683,2.367,2.3837,2.3838,2.3839,0,0,2.3692,2.3702,2.3668,2.3674,2.3683,2.3704,2.3696,2.3714,2.3724,2.3692,2.3735,2.3719,2.3696,2.3699,2.3697,2.3605,2.3636,2.36,2.3539,2.351,2.3498,2.3488,2.3453,2.344,2.3593,2.3593,2.3593,0,2.3633,2.3608,2.3646,2.3621,2.3618,2.3671,2.3635,2.3639,2.3644,2.364,2.3669,2.3641,2.3649,2.3605,2.3582,2.358,2.357,2.3598,2.3497,2.3487,2.3478,2.3445,2.3432,2.3589,2.3589,2.359,2.359,0,2.3534,2.3516,2.3487,2.3491,2.3486,2.3455,2.3488,2.3477,2.3503,2.352,2.3487,2.3499,2.3491,2.3483,2.3508,2.3442,2.3457,2.3491,2.3539,2.3458,2.3428,2.3416,2.3582,2.3584,2.3585,2.3586,0,0,2.339,2.3417,2.3405,2.3408,2.3423,2.3409,2.3381,2.3375,2.3364,2.3366,2.3342,2.3323,2.3354,2.3352,2.3377,2.3352,2.3276,2.3389,2.339,2.3366,2.3202,2.3174,2.3159,2.3298,2.3296,2.3294,2.3201,0,2.3299,2.3253,2.3287,2.3235,2.3217,2.3268,2.3243,2.3249,2.3265,2.3251,2.3269,2.3253,2.3297,2.3296,2.3274,2.329,2.3243,2.3298,2.3274,2.3273,2.3268,2.3144,2.3115,2.3026,2.3189,2.3187,2.3186,0,2.3186,2.3184,2.313,2.3148,2.3142,2.3119,2.3116,2.3104,2.3111,2.3124,2.3122,2.3154,2.3127,2.3177,2.3138,2.3174,2.3167,2.3174,2.3171,2.3168,2.3222,2.3135,2.2999,2.2984,2.3168,2.3169,2.3171,0,2.3083,2.3067,2.3033,2.3034,2.3055,2.3037,2.3045,2.3055,2.3049,2.3046,2.3042,2.3036,2.3032,2.3025,2.3054,2.3088,2.3011,2.3064,2.3019,2.3018,2.2999,2.2999,2.2856,2.2998,2.2998,2.2998,2.2999,0,2.2977,2.2941,2.2987,2.2965,2.2927,2.2966,2.2926,2.2939,2.2948,2.2929,2.2973,2.2953,2.2994,2.2978,2.3001,2.2965,2.2963,2.2971,2.2977,2.2966,2.2965,2.296,2.2966,2.2995,2.2996,2.2996,2.2997,0,2.2854,2.2884,2.285,2.2873,2.2878,2.2848,2.2867,2.2847,2.2867,2.2842,2.2838,2.2868,2.2852,2.2881,2.2869,2.2884,2.2833,2.2849,2.283,2.2834,2.2787,2.279,2.2635,2.2615,2.2771,2.2769,2.2768,0,2.2783,2.2757,2.2777,2.2768,2.2774,2.2759,2.2753,2.2791,2.2783,2.2789,2.2768,2.2757,2.2749,2.2721,2.2741,2.2731,2.2747,2.2693,2.2745,2.2735,2.2743,2.2743,2.274,2.2681,2.2679,2.2678,2.2676,0,2.2652,2.2668,2.2659,2.2655,2.2647,2.2645,2.2646,2.2636,2.2676,2.2665,2.265,2.2644,2.2632,2.2619,2.2615,2.2621,2.2654,2.266,2.2649,2.2636,2.2625,2.2628,2.2798,2.2663,2.2664,2.2665,2.2666,2.2667,2.2552,2.253,2.2541,2.2529,2.2535,2.2535,2.2517,2.2535,2.2524,2.2517,2.2541,2.252,2.2527,2.2525,2.2528,2.2512,2.2535,2.252,2.2515,2.251,2.2502,2.263,2.2511,2.2512,2.2512,2.2513,2.2513,0,2.2421,2.2431,2.242,2.2421,2.2411,2.2446,2.2449,2.2438,2.2419,2.2425,2.2416,2.2398,2.2386,2.2406,2.2396,2.2379,2.2394,2.2375,2.2375,2.2376,2.2482,2.2492,2.2363,2.2363,2.2363,2.2363,2.2363,2.2363,2.2352,2.2317,2.2335,2.2303,2.2313,2.2294,2.2293,2.2292,2.2297,2.2275,2.2266,2.2279,2.2289,2.2281,2.2271,2.2277,2.227,2.2245,2.2256,2.2354,2.2369,2.2383,2.2392,2.2244,2.2244,2.2152,2.2151,2.215]}]]